This is the latest recevied weather packets stored in our database for station/object DB0ADS-6. If no packets are shown the sender has not sent any weather packets the latest 10 day(s).
| Time | Temp. | Humidity | Pressure | Rain* | Wind** | Luminosity | Snow |
|---|---|---|---|---|---|---|---|
| 1777804575 | 22.22° C | 32% | 1013.4 hPa | 0 mm | - | - | - |
| 1777803066 | 21.67° C | 32% | 1013.6 hPa | 0 mm | - | - | - |
| 1777802767 | 21.67° C | 32% | 1013.7 hPa | 0 mm | - | - | - |
| 1777802464 | 21.11° C | 30% | 1013.7 hPa | 0 mm | - | - | - |
| 1777801256 | 21.11° C | 30% | 1013.8 hPa | 0 mm | - | - | - |
| 1777800954 | 21.11° C | 29% | 1013.9 hPa | 0 mm | - | - | - |
| 1777800652 | 20.56° C | 29% | 1014 hPa | 0 mm | - | - | - |
| 1777800371 | 20.56° C | 30% | 1014 hPa | 0 mm | - | - | - |
| 1777800049 | 21.11° C | 30% | 1014 hPa | 0 mm | - | - | - |
| 1777799749 | 20.56° C | 30% | 1014.1 hPa | 0 mm | - | - | - |
| 1777799453 | 21.11° C | 29% | 1014 hPa | 0 mm | - | - | - |
| 1777799144 | 21.67° C | 33% | 1014 hPa | 0 mm | - | - | - |
| 1777798843 | 21.11° C | 33% | 1014 hPa | 0 mm | - | - | - |
| 1777798541 | 21.11° C | 36% | 1014 hPa | 0 mm | - | - | - |
| 1777798239 | 21.11° C | 41% | 1014.1 hPa | 0 mm | - | - | - |
| 1777797937 | 20.56° C | 41% | 1014.1 hPa | 0 mm | - | - | - |
| 1777797635 | 20° C | 44% | 1014.2 hPa | 0 mm | - | - | - |
| 1777797334 | 19.44° C | 45% | 1014.2 hPa | 0 mm | - | - | - |
| 1777797032 | 19.44° C | 47% | 1014.3 hPa | 0 mm | - | - | - |
| 1777796730 | 18.89° C | 47% | 1014.3 hPa | 0 mm | - | - | - |
| 1777796429 | 18.33° C | 49% | 1014.2 hPa | 0 mm | - | - | - |
| 1777796127 | 17.78° C | 49% | 1014.2 hPa | 0 mm | - | - | - |
| 1777795825 | 17.22° C | 49% | 1014.3 hPa | 0 mm | - | - | - |
| 1777795523 | 16.67° C | 50% | 1014.2 hPa | 0 mm | - | - | - |
| 1777795222 | 16.11° C | 50% | 1014.2 hPa | 0 mm | - | - | - |
* Rain latest hour (hover to see other rain measurements)
** Current wind speed in m/s (hover to see current wind gust speed)